Regional Weather Roundup
Issued by NWS

Home | Current Version | Previous Version | Graphics & Text | Print | Product List | Glossary On
Versions: 1 2 3 4 5 6 7 8 9 10 11 12 13 14 15 16 17 18 19 20 21 22 23 24 25 26 27 28 29 30 31 32 33 34 35 36 37 38 39 40 41 42 43 44 45 46 47 48 49 50
000
ASUS45 KSLC 220410
RWRUT

UTAH REGIONAL WEATHER ROUNDUP
NATIONAL WEATHER SERVICE SALT LAKE CITY UT
900 PM MST SAT JAN 21 2017

UTZ001>011-023>025-220500-

NORTHERN UTAH

CITY           SKY/WX    TMP DP  RH WIND       PRES   REMARKS
BRIGHAM CITY     N/A     33  26  75 SW9       29.89R WCI  25
HILL AFB       CLOUDY    30  25  82 S6        29.88R WCI  24
LOGAN          CLOUDY    31  31 100 SE3       29.87R
OGDEN          CLOUDY    31  27  85 S6        29.88R WCI  25
SALT LAKE CITY MOCLDY    31  28  89 SE5       29.89R WCI  26
TOOELE VALLEY  CLOUDY    32  28  86 S10       29.89R WCI  24
WENDOVER       CLOUDY    28  25  86 NW7       29.88R WCI  21
HEBER CITY     MOCLDY    23  18  80 CALM      29.85R
WEST JORDAN    CLOUDY    30  28  93 SW6       29.90  WCI  24

$$

UTZ011>015-024>027-220500-

CENTRAL/NORTHEAST UTAH

CITY           SKY/WX    TMP DP  RH WIND       PRES   REMARKS
PROVO AIRPORT  MOCLDY    27  24  89 S3        29.92R
MOAB/CANYONLAN CLEAR     35  27  72 W13       29.84R WCI  26
DELTA          CLEAR     23  19  86 NE7       29.90R WCI  15
PRICE          PTCLDY    17  12  80 CALM      29.83R
RICHFIELD      CLEAR     23  21  93 E3        29.94R
ROOSEVELT      CLOUDY    18  16  93 CALM      29.83R FOG
VERNAL         CLOUDY    26  22  84 CALM      29.82R FOG

$$

UTZ013>016-019>022-027-220500-

SOUTHERN UTAH

CITY           SKY/WX    TMP DP  RH WIND       PRES   REMARKS
BRYCE CANYON   CLEAR      2  -1  88 CALM      29.91R
CEDAR CITY     CLEAR     24  17  74 SE9       29.93R WCI  14
MILFORD        CLEAR     29  22  75 S9        29.91R WCI  20
ST GEORGE      PTCLDY    39  30  70 SE6       29.99R WCI  35
HANKSVILLE     CLEAR     36  21  55 MISG      29.90R
KANAB          CLEAR     30  27  86 CALM      30.01R
BLANDING       PTCLDY    29  20  68 NW12      29.90R WCI  20

$$

REGIONAL REPORTS     COLORADO/ARIZONA

CITY           SKY/WX    TMP DP  RH WIND       PRES   REMARKS
CRAIG, CO      LGT SNOW  27  23  85 SW9       29.77R FOG     WCI  18
GRAND JUNCTION CLOUDY    35  27  72 NW16      29.81R WCI  25
RIFLE, CO      CLOUDY    34  24  67 NW14      29.77R WCI  25
MONTROSE, CO   CLOUDY    32  29  88 N8        29.81R WCI  25
CORTEZ, CO     CLOUDY    30  28  92 W16       29.83R WCI  19
COLORADO CITY    N/A     30  28  93 SE3       30.00R
PAGE, AZ       CLEAR     41  20  43 VRB5      29.92R
GRAND CANYON   CLEAR      8   6  92 SW6       29.97R WCI  -2
KINGMAN, AZ    CLEAR     39  24  55 S9        30.00R WCI  33
FLAGSTAFF, AZ  CLEAR     18  16  92 SW3       29.97R

$$

REGIONAL REPORTS    NEVADA/IDAHO/WYOMING

CITY           SKY/WX    TMP DP  RH WIND       PRES   REMARKS
LAS VEGAS, NV  PTCLDY    48  30  49 SW6       29.95R
ELY, NY        PTCLDY    14   9  80 S12       29.89R WCI   0
ELKO, NV       CLOUDY    29  21  72 W5        29.84R WCI  24
POCATELLO, ID  CLOUDY    31  24  75 S13       29.82R WCI  21
BURLEY, ID     CLOUDY    35  26  69 S14       29.81R WCI  26
FORT BRIDGER,    N/A     23  23 100 W18       29.82R WCI   9
EVANSTON, WY   CLOUDY    19  15  84 SW15      29.81R WCI   5
ROCK SPRINGS,  CLOUDY    23  18  81 W24       29.75R WCI   7

$$



USA.gov is the U.S. government's official web portal to all federal, state and local government web resources and services.